Flag for Brazil

Past Weather in Santa María, Rio Grande do Sul, Brazil — Yesterday and Last 2 Weeks

Now
54 °F

Passing clouds.


Feels Like: 52 °F
Forecast: 68 / 52 °F
Wind: 7 mph from Northeast

Location: Bage Aeroporto
Current Time: Aug 13, 2020 at 11:50:09 pm
Latest Report: Aug 13, 2020 at 11:00 pm
Visibility: N/A
Pressure29.95 "Hg
Humidity: 94%
Dew Point: 52 °F
Location of Santa MaríaLocation

Past Weather in Santa María — Graph

°F

Santa María Temperature Yesterday

Maximum temperature yesterday: 57 °F (at 2:00 pm)
Minimum temperature yesterday: 36 °F (at 7:00 am)
Average temperature yesterday: 46 °F

High & Low Weather Summary for the Past Weeks

 TemperatureHumidityPressure
High84 °F (Aug 2, 4:00 pm)100% (Jul 30, 3:00 am)30.42 "Hg (Jul 30, 3:00 am)
Low30 °F (Jul 30, 7:31 am)32% (Aug 4, 3:00 pm)29.71 "Hg (Aug 10, 5:03 pm)
Average60 °F74%30.14 "Hg
* Reported Jul 29 10:00 pm — Aug 13 10:00 pm, Santa María. Weather by CustomWeather, © 2020

Note: Actual official high and low records may vary slightly from our data, if they occured in-between our weather recording intervals... More about our weather records

Santa María Weather History for the Previous 24 Hours

Scroll right to see more
 ConditionsComfort  
Time TempWeatherWind HumidityBarometerVisibility
10:00 pm
Thu, Aug 13
50 °FClear.6 mph100%29.95 "Hg10 mi
9:00 pm54 °FPartly cloudy.6 mph94%29.95 "HgN/A
8:00 pm54 °FClear.No wind88%29.92 "Hg10 mi
7:00 pm55 °FPassing clouds.No wind88%29.92 "HgN/A
6:00 pm61 °FPartly sunny.5 mph72%29.89 "HgN/A
5:00 pm61 °FPartly sunny.5 mph72%29.89 "HgN/A
4:00 pm63 °FPartly sunny.8 mph64%29.89 "HgN/A
3:00 pm61 °FPartly sunny.6 mph68%29.89 "HgN/A
2:00 pm59 °FPartly sunny.8 mph77%29.89 "HgN/A
1:15 pm59 °FPartly sunny.5 mph77%29.92 "HgN/A
1:00 pm59 °FOvercast.3 mph77%29.92 "HgN/A
12:08 pm57 °FPartly sunny.5 mph82%29.95 "HgN/A
11:00 am52 °FDrizzle. Partly sunny.6 mph94%29.98 "Hg5 mi
10:00 am50 °FMore clouds than sun.6 mph94%29.98 "HgN/A
9:00 am48 °FOvercast.5 mph94%29.98 "HgN/A
8:15 am48 °FOvercast.1 mph94%29.95 "HgN/A
8:00 am48 °FOvercast.No wind94%29.95 "HgN/A
7:00 am46 °FOvercast.3 mph100%29.95 "HgN/A
6:00 am46 °FOvercast.1 mph93%29.95 "HgN/A
5:00 am46 °FOvercast.3 mph93%29.92 "HgN/A
4:00 am45 °FOvercast.5 mph93%29.89 "HgN/A
3:00 am43 °FPassing clouds.3 mph100%29.92 "HgN/A
2:00 am43 °FPassing clouds.No wind93%29.95 "HgN/A
1:00 am45 °FClear.3 mph87%29.95 "Hg10 mi
12:00 am45 °FClear.6 mph87%29.95 "Hg10 mi
11:00 pm
Wed, Aug 12
45 °FClear.6 mph93%29.95 "Hg10 mi
Weather by CustomWeather, © 2020

See weather overview